Regional Weather Roundup
Issued by NWS

Home | Current Version | Previous Version | Graphics & Text | Print | Product List | Glossary On
Versions: 1 2 3 4 5 6 7 8 9 10 11 12 13 14 15 16 17 18 19 20 21 22 23 24 25 26 27 28 29 30 31 32 33 34 35 36 37 38 39 40 41 42 43 44 45 46 47 48 49 50
000
ASUS43 KBIS 051402
RWRND

NORTH DAKOTA REGIONAL WEATHER ROUNDUP
NATIONAL WEATHER SERVICE BISMARCK ND
800 AM CST MON DEC 05 2016

NOTE: "FAIR" INDICATES FEW OR NO CLOUDS BELOW 12,000 FEET WITH NO
SIGNIFICANT WEATHER AND/OR OBSTRUCTIONS TO VISIBILITY.


NDZ001>003-009>011-017-051500-
NORTHWEST NORTH DAKOTA

CITY           SKY/WX    TMP DP  RH WIND       PRES   REMARKS
WILLISTON      CLOUDY    23  19  85 NW13      29.56R WCI  11
MINOT          CLOUDY    20  17  88 E6        29.51S WCI  12
$$

NDZ018>021-031>035-040>046-051500-
SOUTHWEST NORTH DAKOTA

CITY           SKY/WX    TMP DP  RH WIND       PRES   REMARKS
BISMARCK       CLOUDY    20  18  92 CALM      29.56R
DICKINSON      CLOUDY    27  23  85 W31       29.51R FOG     WCI  10
GARRISON         N/A     31  26  82 W12       29.51R
HETTINGER ARPT CLOUDY    31  26  82 NW23      29.54R WCI  18
$$

NDZ004>008-012>016-024-026-027-054-051500-
NORTHEAST NORTH DAKOTA

CITY           SKY/WX    TMP DP  RH WIND       PRES   REMARKS
GRAND FORKS    CLOUDY    27  25  92 SE7       29.69F FOG     WCI  19
GRND FRKS AFB  CLOUDY    26  25  97 SE9       29.68F FOG     WCI  16
DEVILS LAKE    CLOUDY    22  21  96 E14       29.61F WCI   9
$$

NDZ022-023-025-028>030-036>039-047>053-051500-
SOUTHEAST NORTH DAKOTA

CITY           SKY/WX    TMP DP  RH WIND       PRES   REMARKS
FARGO          CLEAR     21  18  88 E7        29.65F WCI  12
JAMESTOWN      CLEAR     23  21  92 E6        29.57S WCI  16
$$





USA.gov is the U.S. government's official web portal to all federal, state and local government web resources and services.